Simultaneous Nadir Overpasses (SNOs) Predictions

Prediction of SNOs between NOAA-20 and LANDSAT-8 Satellite Orbit:

Table of predicted SNOs for the next 14.0 days since TLE Epoch: 6/25/2022
Index Date (NOAA-20) Time (NOAA-20) Lat,Lon (NOAA-20) SZA (NOAA-20 ) Date (LANDSAT-8) Time (LANDSAT-8) Lat,Lon (LANDSAT-8) SZA (LANDSAT-8 ) Distance(km) Time Diff (sec)
1 06/25/2022 06:32:48 70.18, 78.08 46.76 06/25/2022 06:33:53 70.17, 78.13 46.73 2.24 65
2 06/25/2022 07:23:29 -70.04,-114.38 133.39 06/25/2022 07:23:23 -70.05,-114.41 133.38 1.55 6
3 06/25/2022 08:14:07 69.60, 53.57 46.16 06/25/2022 08:12:56 69.62, 52.64 46.21 36.04 71
4 06/27/2022 22:49:41 70.14,-166.09 46.82 06/27/2022 22:50:23 70.14,-166.03 46.81 2.32 42
5 06/27/2022 23:40:22 -70.00, 1.45 133.33 06/27/2022 23:39:53 -70.03, 1.44 133.30 3.06 29
6 06/30/2022 14:16:05 -71.05, 140.91 132.07 06/30/2022 14:17:11 -70.97, 143.45 132.25 92.50 66
7 06/30/2022 15:06:33 70.11, -50.27 46.94 06/30/2022 15:06:52 70.10, -50.20 46.92 2.70 19
8 06/30/2022 15:57:14 -69.96, 117.28 133.22 06/30/2022 15:56:22 -69.99, 117.28 133.18 3.32 52
9 07/03/2022 06:32:43 -70.24,-101.99 132.74 07/03/2022 06:33:54 -70.22,-101.80 132.78 7.63 71
10 07/03/2022 07:23:25 70.03, 65.64 47.05 07/03/2022 07:23:22 70.05, 65.61 47.07 2.71 3
11 07/03/2022 08:14:06 -69.88,-126.82 133.11 07/03/2022 08:12:53 -69.89,-126.98 133.08 6.54 73
12 07/05/2022 22:49:34 -70.10, 13.99 132.64 07/05/2022 22:50:25 -70.10, 13.92 132.64 2.64 51
13 07/05/2022 23:40:18 70.00,-178.55 47.26 07/05/2022 23:39:52 69.99,-178.59 47.26 1.94 26
14 07/06/2022 00:30:43 -68.99, -9.78 133.78 07/06/2022 00:29:37 -69.06, -12.21 133.62 96.92 66
15 07/08/2022 15:06:27 -70.07, 129.81 132.38 07/08/2022 15:06:54 -70.09, 129.79 132.36 2.60 27
16 07/08/2022 15:57:11 69.97, -62.73 47.53 07/08/2022 15:56:21 69.97, -62.73 47.54 0.21 50



Historial Predications of SNOs between NOAA-20 and LANDSAT-8
